Time,TemperatureF,DewpointF,PressureIn,WindDirection,WindDirectionDegrees,WindSpeedMPH,WindSpeedGustMPH,Humidity,HourlyPrecipIn,Conditions,Clouds,dailyrainin,SoftwareType,DateUTC
2013-01-03 00:00:00,32.4,26.3,30.08,WNW,292,0.0,0.0,78,0.00,CLR,CLR,0.00,WeatherDisplay:10.37,2013-01-03 08:00:00,
2013-01-03 06:15:00,28.8,24.8,30.01,West,270,0.0,0.0,85,0.00,CLR,CLR,0.00,WeatherDisplay:10.37,2013-01-03 14:15:00,
2013-01-03 06:20:00,28.8,24.8,30.01,West,270,0.0,0.0,85,0.00,CLR,CLR,0.00,WeatherDisplay:10.37,2013-01-03 14:20:00,
2013-01-03 06:25:00,28.8,24.8,30.01,West,270,0.0,0.0,85,0.00,CLR,CLR,0.00,WeatherDisplay:10.37,2013-01-03 14:25:00,
2013-01-03 06:30:00,28.9,25.0,30.01,West,270,0.0,0.0,85,0.00,CLR,CLR,0.00,WeatherDisplay:10.37,2013-01-03 14:30:00,
2013-01-03 06:35:00,28.8,24.8,30.01,West,270,0.0,0.0,85,0.00,CLR,CLR,0.00,WeatherDisplay:10.37,2013-01-03 14:35:00,
2013-01-03 06:40:00,28.9,25.0,30.01,West,270,0.0,0.0,85,0.00,CLR,CLR,0.00,WeatherDisplay:10.37,2013-01-03 14:40:00,
2013-01-03 06:45:00,28.8,24.8,30.01,West,270,0.0,0.0,85,0.00,CLR,CLR,0.00,WeatherDisplay:10.37,2013-01-03 14:45:00,
2013-01-03 06:50:00,28.8,24.8,30.02,West,270,0.0,0.0,85,0.00,CLR,CLR,0.00,WeatherDisplay:10.37,2013-01-03 14:50:00,
2013-01-03 06:55:00,28.9,24.7,30.02,West,270,0.0,0.0,84,0.00,CLR,CLR,0.00,WeatherDisplay:10.37,2013-01-03 14:55:00,
2013-01-03 07:00:00,28.9,24.7,30.02,West,270,0.0,0.0,84,0.00,CLR,CLR,0.00,WeatherDisplay:10.37,2013-01-03 15:00:00,
2013-01-03 07:05:00,28.9,24.7,30.02,West,270,0.0,0.0,84,0.00,CLR,CLR,0.00,WeatherDisplay:10.37,2013-01-03 15:05:00,
2013-01-03 07:10:00,29.1,24.9,30.01,West,270,0.0,0.0,84,0.00,CLR,CLR,0.00,WeatherDisplay:10.37,2013-01-03 15:10:00,
2013-01-03 07:15:00,29.1,24.9,30.01,West,270,0.0,0.0,84,0.00,CLR,CLR,0.00,WeatherDisplay:10.37,2013-01-03 15:15:00,
2013-01-03 07:20:00,28.9,24.7,30.01,West,270,0.0,0.0,84,0.00,CLR,CLR,0.00,WeatherDisplay:10.37,2013-01-03 15:20:00,
2013-01-03 07:25:00,28.9,24.7,30.01,West,270,0.0,0.0,84,0.00,CLR,CLR,0.00,WeatherDisplay:10.37,2013-01-03 15:25:00,
2013-01-03 07:30:00,28.9,24.7,30.02,West,270,0.0,0.0,84,0.00,CLR,CLR,0.00,WeatherDisplay:10.37,2013-01-03 15:30:00,
2013-01-03 07:35:00,28.8,24.5,30.02,West,270,0.0,0.0,84,0.00,CLR,CLR,0.00,WeatherDisplay:10.37,2013-01-03 15:35:00,
2013-01-03 07:40:00,28.6,24.4,30.02,West,270,0.0,0.0,84,0.00,CLR,CLR,0.00,WeatherDisplay:10.37,2013-01-03 15:40:00,
2013-01-03 07:45:00,28.6,24.4,30.02,West,270,0.0,0.0,84,0.00,CLR,CLR,0.00,WeatherDisplay:10.37,2013-01-03 15:45:00,
2013-01-03 07:50:00,28.8,24.5,30.03,West,270,0.0,0.0,84,0.00,CLR,CLR,0.00,WeatherDisplay:10.37,2013-01-03 15:50:00,
2013-01-03 07:55:00,28.8,24.5,30.03,West,270,0.0,0.0,84,0.00,CLR,CLR,0.00,WeatherDisplay:10.37,2013-01-03 15:55:00,
2013-01-03 08:00:00,28.8,24.5,30.03,West,270,0.0,0.0,84,0.00,CLR,CLR,0.00,WeatherDisplay:10.37,2013-01-03 16:00:00,
2013-01-03 08:10:00,28.9,24.7,30.02,West,270,0.0,0.0,84,0.00,CLR,CLR,0.00,WeatherDisplay:10.37,2013-01-03 16:10:00,
2013-01-03 08:15:00,28.8,24.5,30.02,West,270,0.0,0.0,84,0.00,CLR,CLR,0.00,WeatherDisplay:10.37,2013-01-03 16:15:00,
2013-01-03 08:20:00,28.8,24.5,30.02,West,270,0.0,0.0,84,0.00,CLR,CLR,0.00,WeatherDisplay:10.37,2013-01-03 16:20:00,
2013-01-03 08:22:00,28.9,24.7,30.03,West,270,0.0,0.0,84,0.00,CLR,CLR,0.00,WeatherDisplay:10.37,2013-01-03 16:22:00,
2013-01-03 08:35:00,28.9,25.0,30.03,West,270,0.0,0.0,85,0.00,CLR,CLR,0.00,WeatherDisplay:10.37,2013-01-03 16:35:00,
2013-01-03 08:41:00,29.1,25.2,30.02,West,270,0.0,0.0,85,0.00,CLR,CLR,0.00,WeatherDisplay:10.37,2013-01-03 16:41:00,
2013-01-03 08:45:00,29.1,25.2,30.03,West,270,0.0,0.0,85,0.00,CLR,CLR,0.00,WeatherDisplay:10.37,2013-01-03 16:45:00,
2013-01-03 08:46:00,29.1,25.2,30.03,West,270,0.0,0.0,85,0.00,CLR,CLR,0.00,WeatherDisplay:10.37,2013-01-03 16:46:00,
2013-01-03 08:50:00,29.3,25.6,30.03,West,270,0.0,0.0,86,0.00,CLR,CLR,0.00,WeatherDisplay:10.37,2013-01-03 16:50:00,
2013-01-03 08:56:00,28.9,25.0,30.03,West,270,0.0,0.0,85,0.00,CLR,CLR,0.00,WeatherDisplay:10.37,2013-01-03 16:56:00,
2013-01-03 09:00:00,29.7,26.0,30.03,West,270,0.0,0.0,86,0.00,CLR,CLR,0.00,WeatherDisplay:10.37,2013-01-03 17:00:00,
2013-01-03 09:10:00,30.2,26.5,30.03,West,270,0.0,0.0,86,0.00,CLR,CLR,0.00,WeatherDisplay:10.37,2013-01-03 17:10:00,
2013-01-03 09:11:00,29.5,25.8,30.03,West,270,0.0,0.0,86,0.00,CLR,CLR,0.00,WeatherDisplay:10.37,2013-01-03 17:11:00,
2013-01-03 09:20:00,30.6,26.9,30.03,WNW,288,0.0,0.0,86,0.00,CLR,CLR,0.00,WeatherDisplay:10.37,2013-01-03 17:20:00,
2013-01-03 09:22:00,29.8,26.2,30.03,West,270,0.0,0.0,86,0.00,CLR,CLR,0.00,WeatherDisplay:10.37,2013-01-03 17:22:00,
2013-01-03 09:30:00,31.1,27.4,30.03,NW,315,0.0,0.0,86,0.00,CLR,CLR,0.00,WeatherDisplay:10.37,2013-01-03 17:30:00,
2013-01-03 09:31:00,30.6,26.9,30.03,West,270,0.0,0.0,86,0.00,CLR,CLR,0.00,WeatherDisplay:10.37,2013-01-03 17:31:00,
2013-01-03 09:41:00,30.9,27.2,30.03,NW,311,0.0,0.0,86,0.00,CLR,CLR,0.00,WeatherDisplay:10.37,2013-01-03 17:41:00,
2013-01-03 09:51:00,31.3,27.6,30.03,NW,315,0.0,0.0,86,0.00,CLR,CLR,0.00,WeatherDisplay:10.37,2013-01-03 17:51:00,
2013-01-03 09:56:00,31.3,27.3,30.03,NW,315,0.0,0.0,85,0.00,CLR,CLR,0.00,WeatherDisplay:10.37,2013-01-03 17:56:00,
2013-01-03 10:05:00,32.2,27.9,30.03,NW,315,0.0,0.0,84,0.00,CLR,CLR,0.00,WeatherDisplay:10.37,2013-01-03 18:05:00,
2013-01-03 10:06:00,31.5,27.2,30.03,NW,315,0.0,0.0,84,0.00,CLR,CLR,0.00,WeatherDisplay:10.37,2013-01-03 18:06:00,
2013-01-03 10:10:00,32.5,28.2,30.03,NW,315,0.0,0.0,84,0.00,CLR,CLR,0.00,WeatherDisplay:10.37,2013-01-03 18:10:00,
2013-01-03 10:15:00,32.9,28.6,30.03,NW,315,0.0,0.0,84,0.00,CLR,CLR,0.00,WeatherDisplay:10.37,2013-01-03 18:15:00,
2013-01-03 10:16:00,32.0,27.7,30.03,NW,315,0.0,0.0,84,0.00,CLR,CLR,0.00,WeatherDisplay:10.37,2013-01-03 18:16:00,
2013-01-03 10:30:00,34.3,29.7,30.03,NW,315,0.0,0.0,83,0.00,CLR,CLR,0.00,WeatherDisplay:10.37,2013-01-03 18:30:00,
2013-01-03 10:36:00,33.4,29.1,30.03,NW,315,0.0,0.0,84,0.00,CLR,CLR,0.00,WeatherDisplay:10.37,2013-01-03 18:36:00,
2013-01-03 10:51:00,34.7,30.1,30.03,NW,315,0.0,0.0,83,0.00,CLR,CLR,0.00,WeatherDisplay:10.37,2013-01-03 18:51:00,
2013-01-03 10:55:00,36.5,31.2,30.03,NW,315,0.0,0.0,81,0.00,CLR,CLR,0.00,WeatherDisplay:10.37,2013-01-03 18:55:00,
2013-01-03 10:56:00,35.2,30.3,30.03,NW,315,0.0,0.0,82,0.00,CLR,CLR,0.00,WeatherDisplay:10.37,2013-01-03 18:56:00,
2013-01-03 11:06:00,36.1,31.2,30.03,NW,315,0.0,0.0,82,0.00,CLR,CLR,0.00,WeatherDisplay:10.37,2013-01-03 19:06:00,
2013-01-03 11:16:00,37.2,31.9,30.03,NW,315,0.0,0.0,81,0.00,CLR,CLR,0.00,WeatherDisplay:10.37,2013-01-03 19:16:00,
2013-01-03 11:35:00,39.6,32.0,30.02,NW,315,0.0,0.0,74,0.00,CLR,CLR,0.00,WeatherDisplay:10.37,2013-01-03 19:35:00,
2013-01-03 11:45:00,40.1,31.8,30.02,NW,315,0.0,0.0,72,0.00,CLR,CLR,0.00,WeatherDisplay:10.37,2013-01-03 19:45:00,
2013-01-03 11:56:00,40.1,32.1,30.02,NW,315,0.0,0.0,73,0.00,CLR,CLR,0.00,WeatherDisplay:10.37,2013-01-03 19:56:00,
2013-01-03 12:00:00,41.0,31.2,30.01,NW,315,0.0,0.0,68,0.00,CLR,CLR,0.00,WeatherDisplay:10.37,2013-01-03 20:00:00,
2013-01-03 12:06:00,40.6,31.6,30.01,NW,315,0.0,0.0,70,0.00,CLR,CLR,0.00,WeatherDisplay:10.37,2013-01-03 20:06:00,
2013-01-03 12:10:00,41.4,30.8,30.01,NW,315,0.0,0.0,66,0.00,CLR,CLR,0.00,WeatherDisplay:10.37,2013-01-03 20:10:00,
2013-01-03 12:20:00,41.7,30.4,30.01,NW,315,0.0,0.0,64,0.00,CLR,CLR,0.00,WeatherDisplay:10.37,2013-01-03 20:20:00,
2013-01-03 12:22:00,41.2,31.0,30.01,NW,315,0.0,0.0,67,0.00,CLR,CLR,0.00,WeatherDisplay:10.37,2013-01-03 20:22:00,
2013-01-03 12:31:00,41.5,30.6,30.01,NW,315,0.0,0.0,65,0.00,CLR,CLR,0.00,WeatherDisplay:10.37,2013-01-03 20:31:00,
2013-01-03 12:41:00,41.9,30.2,30.01,NW,315,0.0,0.0,63,0.00,CLR,CLR,0.00,WeatherDisplay:10.37,2013-01-03 20:41:00,
2013-01-03 12:46:00,42.3,30.6,30.00,NW,315,0.0,0.0,63,0.00,CLR,CLR,0.00,WeatherDisplay:10.37,2013-01-03 20:46:00,
2013-01-03 12:56:00,42.4,30.7,30.00,NW,315,0.0,0.0,63,0.00,CLR,CLR,0.00,WeatherDisplay:10.37,2013-01-03 20:56:00,
2013-01-03 13:00:00,43.0,30.4,30.00,NW,315,0.0,0.0,61,0.00,CLR,CLR,0.00,WeatherDisplay:10.37,2013-01-03 21:00:00,
2013-01-03 13:05:00,43.0,30.8,30.00,NW,315,0.0,0.0,62,0.00,CLR,CLR,0.00,WeatherDisplay:10.37,2013-01-03 21:05:00,
2013-01-03 13:06:00,42.8,30.7,30.00,NW,315,0.0,0.0,62,0.00,CLR,CLR,0.00,WeatherDisplay:10.37,2013-01-03 21:06:00,
2013-01-03 13:15:00,43.3,30.4,30.00,NW,315,0.0,0.0,60,0.00,CLR,CLR,0.00,WeatherDisplay:10.37,2013-01-03 21:15:00,
2013-01-03 13:26:00,43.2,30.6,30.00,NW,315,0.0,0.0,61,0.00,CLR,CLR,0.00,WeatherDisplay:10.37,2013-01-03 21:26:00,
2013-01-03 13:36:00,43.3,30.4,30.00,NW,315,0.0,0.0,60,0.00,CLR,CLR,0.00,WeatherDisplay:10.37,2013-01-03 21:36:00,
2013-01-03 13:40:00,43.5,30.1,30.00,NW,315,0.0,0.0,59,0.00,CLR,CLR,0.00,WeatherDisplay:10.37,2013-01-03 21:40:00,
2013-01-03 13:41:00,43.3,30.4,30.00,NW,315,0.0,0.0,60,0.00,CLR,CLR,0.00,WeatherDisplay:10.37,2013-01-03 21:41:00,
2013-01-03 13:46:00,43.3,30.4,30.00,NW,315,0.0,0.0,60,0.00,CLR,CLR,0.00,WeatherDisplay:10.37,2013-01-03 21:46:00,
2013-01-03 13:55:00,43.7,30.7,29.99,NW,315,0.0,0.0,60,0.00,CLR,CLR,0.00,WeatherDisplay:10.37,2013-01-03 21:55:00,
2013-01-03 14:01:00,43.7,30.7,30.00,NW,315,0.0,0.0,60,0.00,CLR,CLR,0.00,WeatherDisplay:10.37,2013-01-03 22:01:00,
2013-01-03 14:06:00,43.7,30.7,29.99,NW,315,0.0,0.0,60,0.00,CLR,CLR,0.00,WeatherDisplay:10.37,2013-01-03 22:06:00,
2013-01-03 14:15:00,43.7,31.1,29.99,NW,315,0.0,0.0,61,0.00,CLR,CLR,0.00,WeatherDisplay:10.37,2013-01-03 22:15:00,
2013-01-03 14:16:00,43.7,30.7,29.99,NW,315,0.0,0.0,60,0.00,CLR,CLR,0.00,WeatherDisplay:10.37,2013-01-03 22:16:00,
2013-01-03 14:22:00,43.7,31.1,29.99,NW,315,0.0,0.0,61,0.00,CLR,CLR,0.00,WeatherDisplay:10.37,2013-01-03 22:22:00,
2013-01-03 14:36:00,43.7,31.5,29.99,NW,315,0.0,0.0,62,0.00,CLR,CLR,0.00,WeatherDisplay:10.37,2013-01-03 22:36:00,
2013-01-03 14:46:00,43.5,31.4,29.99,NW,315,0.0,0.0,62,0.00,CLR,CLR,0.00,WeatherDisplay:10.37,2013-01-03 22:46:00,
2013-01-03 14:56:00,43.2,31.4,29.99,NW,315,0.0,0.0,63,0.00,CLR,CLR,0.00,WeatherDisplay:10.37,2013-01-03 22:56:00,
2013-01-03 15:06:00,43.0,31.2,30.00,NW,315,0.0,0.0,63,0.00,CLR,CLR,0.00,WeatherDisplay:10.37,2013-01-03 23:06:00,
2013-01-03 15:16:00,42.6,31.3,30.00,NW,315,0.0,0.0,64,0.00,CLR,CLR,0.00,WeatherDisplay:10.37,2013-01-03 23:16:00,
2013-01-03 15:22:00,42.4,31.1,30.00,NW,315,0.0,0.0,64,0.00,CLR,CLR,0.00,WeatherDisplay:10.37,2013-01-03 23:22:00,
2013-01-03 15:31:00,42.3,31.7,30.02,NW,315,0.0,0.0,66,0.00,CLR,CLR,0.00,WeatherDisplay:10.37,2013-01-03 23:31:00,
2013-01-03 15:36:00,42.1,31.5,30.02,NW,315,0.0,0.0,66,0.00,CLR,CLR,0.00,WeatherDisplay:10.37,2013-01-03 23:36:00,
2013-01-03 15:46:00,41.7,31.2,30.02,NW,315,0.0,0.0,66,0.00,CLR,CLR,0.00,WeatherDisplay:10.37,2013-01-03 23:46:00,
2013-01-03 15:56:00,41.7,31.2,30.02,NW,315,0.0,0.0,66,0.00,CLR,CLR,0.00,WeatherDisplay:10.37,2013-01-03 23:56:00,
2013-01-03 16:06:00,41.5,31.0,30.02,NW,315,0.0,0.0,66,0.00,CLR,CLR,0.00,WeatherDisplay:10.37,2013-01-04 00:06:00,
2013-01-03 16:16:00,41.7,31.2,30.02,NW,315,0.0,0.0,66,0.00,CLR,CLR,0.00,WeatherDisplay:10.37,2013-01-04 00:16:00,
2013-01-03 16:22:00,41.5,31.0,30.02,NW,315,0.0,0.0,66,0.00,BKN,BKN,0.00,WeatherDisplay:10.37,2013-01-04 00:22:00,
2013-01-03 16:31:00,41.5,31.4,30.00,NW,315,0.0,0.0,67,0.00,BKN,BKN,0.00,WeatherDisplay:10.37,2013-01-04 00:31:00,
2013-01-03 16:36:00,41.5,31.4,30.00,NW,315,0.0,0.0,67,0.00,BKN,BKN,0.00,WeatherDisplay:10.37,2013-01-04 00:36:00,
2013-01-03 16:46:00,41.5,31.4,30.01,NW,315,0.0,0.0,67,0.00,BKN,BKN,0.00,WeatherDisplay:10.37,2013-01-04 00:46:00,
2013-01-03 16:56:00,41.5,31.4,30.01,NW,315,0.0,0.0,67,0.00,BKN,BKN,0.00,WeatherDisplay:10.37,2013-01-04 00:56:00,
2013-01-03 17:06:00,41.4,30.8,30.01,NW,315,0.0,0.0,66,0.00,BKN,BKN,0.00,WeatherDisplay:10.37,2013-01-04 01:06:00,
2013-01-03 17:11:00,41.4,30.8,30.01,NW,315,0.0,0.0,66,0.00,BKN,BKN,0.00,WeatherDisplay:10.37,2013-01-04 01:11:00,
2013-01-03 17:22:00,41.2,30.7,30.01,NW,315,0.0,0.0,66,0.00,BKN,BKN,0.00,WeatherDisplay:10.37,2013-01-04 01:22:00,
2013-01-03 17:31:00,41.2,30.3,30.01,NW,315,0.0,0.0,65,0.00,BKN,BKN,0.00,WeatherDisplay:10.37,2013-01-04 01:31:00,
2013-01-03 17:36:00,41.2,30.3,30.01,NW,315,0.0,0.0,65,0.00,BKN,BKN,0.00,WeatherDisplay:10.37,2013-01-04 01:36:00,
2013-01-03 17:46:00,41.2,29.9,30.00,NW,315,0.0,0.0,64,0.00,BKN,BKN,0.00,WeatherDisplay:10.37,2013-01-04 01:46:00,
2013-01-03 17:56:00,41.0,29.7,30.00,NW,315,0.0,0.0,64,0.00,BKN,BKN,0.00,WeatherDisplay:10.37,2013-01-04 01:56:00,
2013-01-03 18:06:00,41.2,29.9,29.99,NW,315,0.0,0.0,64,0.00,BKN,BKN,0.00,WeatherDisplay:10.37,2013-01-04 02:06:00,
2013-01-03 18:16:00,41.2,29.5,29.99,NW,315,0.0,0.0,63,0.00,BKN,BKN,0.00,WeatherDisplay:10.37,2013-01-04 02:16:00,
2013-01-03 18:21:00,41.4,29.3,29.99,NW,315,0.0,0.0,62,0.00,OVC,OVC,0.00,WeatherDisplay:10.37,2013-01-04 02:21:00,
2013-01-03 18:31:00,41.5,29.5,30.00,NW,315,0.0,0.0,62,0.00,OVC,OVC,0.00,WeatherDisplay:10.37,2013-01-04 02:31:00,
2013-01-03 18:36:00,41.4,29.3,30.00,WNW,292,0.0,0.0,62,0.00,OVC,OVC,0.00,WeatherDisplay:10.37,2013-01-04 02:36:00,
2013-01-03 18:41:00,41.4,29.3,30.00,SSE,155,0.0,0.0,62,0.00,OVC,OVC,0.00,WeatherDisplay:10.37,2013-01-04 02:41:00,
2013-01-03 18:46:00,41.4,29.3,30.03,SSE,158,0.0,0.0,62,0.00,OVC,OVC,0.00,WeatherDisplay:10.37,2013-01-04 02:46:00,
2013-01-03 18:56:00,41.4,29.3,30.03,SSE,158,0.0,0.0,62,0.00,OVC,OVC,0.00,WeatherDisplay:10.37,2013-01-04 02:56:00,
2013-01-03 19:06:00,41.2,31.0,30.03,SSE,158,0.0,0.0,67,0.00,RA,RA,0.03,WeatherDisplay:10.37,2013-01-04 03:06:00,
2013-01-03 19:16:00,40.6,32.0,30.03,SSE,158,0.0,0.0,71,0.03,RA,RA,0.06,WeatherDisplay:10.37,2013-01-04 03:16:00,
2013-01-03 19:21:00,40.5,32.1,30.03,SSE,158,0.0,0.0,72,0.00,RA,RA,0.06,WeatherDisplay:10.37,2013-01-04 03:21:00,
2013-01-03 19:26:00,39.7,31.8,30.02,SSE,158,0.0,0.0,73,0.00,OVC,OVC,0.06,WeatherDisplay:10.37,2013-01-04 03:26:00,
2013-01-03 19:36:00,39.6,32.6,30.02,SSE,158,0.0,0.0,76,0.00,OVC,OVC,0.06,WeatherDisplay:10.37,2013-01-04 03:36:00,
2013-01-03 19:46:00,39.4,32.8,30.03,SSE,158,0.0,0.0,77,0.00,OVC,OVC,0.06,WeatherDisplay:10.37,2013-01-04 03:46:00,
2013-01-03 19:56:00,39.2,32.9,30.03,SSE,158,0.0,0.0,78,0.00,OVC,OVC,0.06,WeatherDisplay:10.37,2013-01-04 03:56:00,
2013-01-03 20:06:00,39.2,33.2,30.03,SSE,158,0.0,0.0,79,0.00,OVC,OVC,0.06,WeatherDisplay:10.37,2013-01-04 04:06:00,
2013-01-03 20:16:00,38.7,33.0,30.03,SSE,158,0.0,0.0,80,0.03,RA,RA,0.08,WeatherDisplay:10.37,2013-01-04 04:16:00,
2013-01-03 20:21:00,38.7,33.0,30.03,SSE,158,0.0,0.0,80,0.00,-RA,-RA,0.08,WeatherDisplay:10.37,2013-01-04 04:21:00,
2013-01-03 20:26:00,38.7,33.3,30.02,SSE,158,0.0,0.0,81,0.00,-RA,-RA,0.08,WeatherDisplay:10.37,2013-01-04 04:26:00,
2013-01-03 20:36:00,38.5,33.5,30.02,SSE,158,0.0,0.0,82,0.00,-RA,-RA,0.08,WeatherDisplay:10.37,2013-01-04 04:36:00,
2013-01-03 20:45:00,38.5,33.5,30.03,SSE,158,0.0,0.0,82,0.00,-RA,-RA,0.08,WeatherDisplay:10.37,2013-01-04 04:45:00,
2013-01-03 20:46:00,38.3,33.3,30.03,SSE,158,0.0,0.0,82,0.00,-RA,-RA,0.08,WeatherDisplay:10.37,2013-01-04 04:46:00,
2013-01-03 20:50:00,38.5,33.8,30.03,SSE,158,0.0,0.0,83,0.03,-RA,-RA,0.11,WeatherDisplay:10.37,2013-01-04 04:50:00,
2013-01-03 20:55:00,38.5,33.8,30.03,SSE,158,0.0,0.0,83,0.00,-RA,-RA,0.11,WeatherDisplay:10.37,2013-01-04 04:55:00,
2013-01-03 20:56:00,38.5,33.5,30.03,SSE,158,0.0,0.0,82,0.00,-RA,-RA,0.08,WeatherDisplay:10.37,2013-01-04 04:56:00,
2013-01-03 21:00:00,38.3,33.6,30.03,SSE,158,0.0,0.0,83,0.00,-RA,-RA,0.11,WeatherDisplay:10.37,2013-01-04 05:00:00,
2013-01-03 21:05:00,38.3,33.9,30.03,SSE,158,0.0,0.0,84,0.00,-RA,-RA,0.11,WeatherDisplay:10.37,2013-01-04 05:05:00,
2013-01-03 21:10:00,38.5,34.1,30.03,SSE,158,0.0,0.0,84,0.00,-RA,-RA,0.11,WeatherDisplay:10.37,2013-01-04 05:10:00,
2013-01-03 21:15:00,38.5,34.1,30.03,SSE,158,0.0,0.0,84,0.03,-RA,-RA,0.14,WeatherDisplay:10.37,2013-01-04 05:15:00,
2013-01-03 21:20:00,38.7,34.2,30.03,SSE,158,0.0,0.0,84,0.00,-RA,-RA,0.14,WeatherDisplay:10.37,2013-01-04 05:20:00,
2013-01-03 21:25:00,38.7,34.2,30.03,SSE,158,0.0,0.0,84,0.00,-RA,-RA,0.14,WeatherDisplay:10.37,2013-01-04 05:25:00,
2013-01-03 21:30:00,38.7,34.2,30.04,SSE,158,0.0,0.0,84,0.00,-RA,-RA,0.14,WeatherDisplay:10.37,2013-01-04 05:30:00,
2013-01-03 21:35:00,38.7,34.2,30.04,SSE,158,0.0,0.0,84,0.00,-RA,-RA,0.14,WeatherDisplay:10.37,2013-01-04 05:35:00,
2013-01-03 21:40:00,38.7,34.2,30.04,SSE,158,0.0,0.0,84,0.00,-RA,-RA,0.14,WeatherDisplay:10.37,2013-01-04 05:40:00,
2013-01-03 21:45:00,38.7,34.5,30.04,SSE,158,0.0,0.0,85,0.00,-RA,-RA,0.14,WeatherDisplay:10.37,2013-01-04 05:45:00,
2013-01-03 21:50:00,38.7,34.5,30.04,SSE,158,0.0,0.0,85,0.00,-RA,-RA,0.14,WeatherDisplay:10.37,2013-01-04 05:50:00,
2013-01-03 21:55:00,38.7,34.5,30.04,SSE,158,0.0,0.0,85,0.00,-RA,-RA,0.14,WeatherDisplay:10.37,2013-01-04 05:55:00,
2013-01-03 22:00:00,38.7,34.5,30.04,SSE,158,0.0,0.0,85,0.00,-RA,-RA,0.14,WeatherDisplay:10.37,2013-01-04 06:00:00,
2013-01-03 22:05:00,38.7,34.5,30.04,SSE,158,0.0,0.0,85,0.00,-RA,-RA,0.14,WeatherDisplay:10.37,2013-01-04 06:05:00,
2013-01-03 22:10:00,38.7,34.5,30.05,SSE,158,0.0,0.0,85,0.03,-RA,-RA,0.17,WeatherDisplay:10.37,2013-01-04 06:10:00,
2013-01-03 22:15:00,38.8,34.7,30.05,SSE,158,0.0,0.0,85,0.00,-RA,-RA,0.17,WeatherDisplay:10.37,2013-01-04 06:15:00,
2013-01-03 22:20:00,38.8,34.7,30.05,SSE,158,0.0,0.0,85,0.00,-RA,-RA,0.17,WeatherDisplay:10.37,2013-01-04 06:20:00,
2013-01-03 22:25:00,38.8,34.7,30.05,SSE,158,0.0,0.0,85,0.00,-RA,-RA,0.17,WeatherDisplay:10.37,2013-01-04 06:25:00,
2013-01-03 22:30:00,38.8,34.7,30.06,SSE,158,0.0,0.0,85,0.00,-RA,-RA,0.17,WeatherDisplay:10.37,2013-01-04 06:30:00,
2013-01-03 22:35:00,39.0,34.9,30.06,SSE,158,0.0,0.0,85,0.00,-RA,-RA,0.17,WeatherDisplay:10.37,2013-01-04 06:35:00,
2013-01-03 22:40:00,39.0,34.9,30.06,SSE,158,0.0,0.0,85,0.00,-RA,-RA,0.17,WeatherDisplay:10.37,2013-01-04 06:40:00,
2013-01-03 22:45:00,39.0,35.2,30.06,SSE,158,0.0,0.0,86,0.00,-RA,-RA,0.17,WeatherDisplay:10.37,2013-01-04 06:45:00,
2013-01-03 22:50:00,39.0,35.2,30.06,SSE,158,0.0,0.0,86,0.00,-RA,-RA,0.17,WeatherDisplay:10.37,2013-01-04 06:50:00,
2013-01-03 22:55:00,38.8,35.0,30.06,SSE,158,0.0,0.0,86,0.00,-RA,-RA,0.17,WeatherDisplay:10.37,2013-01-04 06:55:00,
2013-01-03 23:00:00,38.8,35.0,30.06,SSE,158,0.0,0.0,86,0.03,-RA,-RA,0.19,WeatherDisplay:10.37,2013-01-04 07:00:00,
2013-01-03 23:05:00,38.8,35.0,30.06,SSE,158,0.0,0.0,86,0.00,-RA,-RA,0.19,WeatherDisplay:10.37,2013-01-04 07:05:00,
2013-01-03 23:10:00,38.7,34.8,30.06,SSE,158,0.0,0.0,86,0.00,-RA,-RA,0.19,WeatherDisplay:10.37,2013-01-04 07:10:00,
2013-01-03 23:15:00,38.7,34.8,30.06,SSE,158,0.0,0.0,86,0.00,-RA,-RA,0.19,WeatherDisplay:10.37,2013-01-04 07:15:00,
2013-01-03 23:20:00,38.8,35.0,30.06,SSE,158,0.0,0.0,86,0.00,-RA,-RA,0.19,WeatherDisplay:10.37,2013-01-04 07:20:00,
2013-01-03 23:25:00,38.8,35.0,30.06,SSE,158,0.0,0.0,86,0.00,-RA,-RA,0.19,WeatherDisplay:10.37,2013-01-04 07:25:00,
2013-01-03 23:30:00,39.0,35.5,30.06,SSE,158,0.0,0.0,87,0.00,-RA,-RA,0.19,WeatherDisplay:10.37,2013-01-04 07:30:00,
2013-01-03 23:35:00,39.0,35.5,30.06,SSE,158,0.0,0.0,87,0.00,-RA,-RA,0.19,WeatherDisplay:10.37,2013-01-04 07:35:00,
2013-01-03 23:40:00,39.2,35.7,30.06,SSE,158,0.0,0.0,87,0.00,-RA,-RA,0.19,WeatherDisplay:10.37,2013-01-04 07:40:00,
2013-01-03 23:45:00,39.2,35.7,30.06,SSE,158,0.0,0.0,87,0.00,-RA,-RA,0.19,WeatherDisplay:10.37,2013-01-04 07:45:00,
2013-01-03 23:50:00,39.2,35.7,30.06,SSE,158,0.0,0.0,87,0.00,-RA,-RA,0.19,WeatherDisplay:10.37,2013-01-04 07:50:00,
2013-01-03 23:55:00,39.2,35.7,30.06,SSE,158,0.0,0.0,87,0.00,-RA,-RA,0.19,WeatherDisplay:10.37,2013-01-04 07:55:00,